Погода в Маяке

Россия / Хабаровский край     48°55′03″N   136°14′42″E
темп.,
°C
ветер,
м/с
пор.,
м/с
влажн.,
%
обл.,
%
осадки,
мм/ч
давл.,
гПа
погр.,
м
12 апреля, пн
пн1201:00+6юз3691100 0.3 101996
04:00+6юз3483100 1.2 101888
07:00+6ююв2282100 0.5 101857
10:00+6вюв1197100 1.9 101646
13:00+8ююз41184100 1.1 1013723
16:00+12з3865100 1.1 1009456
19:00+6с4684100 0.1 1007189
22:00+6в228397 0.2 100742
13 апреля, вт
вт1301:00+5ссз2584100 0.1 1005157
04:00+2ссв4485100 0.2 1004111
07:00+3всв2593100 5.4 1001426
10:00−1с3596100 11.5 1001482
13:00−3ссв6995100 5.1 1000326
16:00−2ссв6994100 7.9 1000703
19:00−3всв3795100 1.7 1002452
22:00−4вюв3697100 2.4 1002322
14 апреля, ср
ср1401:00−4вюв2597100 1.6 1000417
04:00−5в2697100 4.8 1000431
07:00−7всв2496100 1.9 1001314
10:00−5ю2489100 2.2 1003583
13:00−2зюз71078100 0.7 10031509
16:000зюз6973100 1.1 10031445
19:00−2юз487894 0.1 1005240
22:00−5юз498569 0.1 1006171
15 апреля, чт
чт1501:00−5юз410849 0.0 1007222
04:00−6зюз510845 0.0 1009255
07:00−5юз511835 0.0 1010322
10:000зюз610763 0.0 10121236
13:00+1зюз58799 0.0 1014833
16:00+2зюз248530 0.0 1014488
19:000в11824 0.0 101510
22:00−4в358484 0.0 101648
16 апреля, пт
пт1601:00−4всв3782100 0.0 101574
04:00−3св3784100 0.0 101399
07:00−2св378595 0.0 1012134
10:00+2ссв3492100 0.0 1010150
13:00+4ссз2291100 0.0 1010184
16:00+8св2576100 0.0 1008637
19:00+3зюз3596100 0.3 1010177
22:00+4ю3792100 2.2 1012171